sat.trackr.live / text

‹ back to catalog

SCS-01 L

NORAD 63992 · 2025-100L

PAYLOAD ACTIVE UNKNOWN

§ Identity

Operator
Country
PRC
Launch date
2025-05-14
Launch site
JSC
Launch vehicle
Mass (kg)
RCS (m²)

External: N2YO · Heavens-Above · Gunter

§ Orbital elements

Epoch: 2026-09-21T23:16:42.267360Z

Period
94.68 min
Inclination
97.3587°
Eccentricity
0.0006538
Mean motion
15.20972492 rev/d
Perigee alt
498.4 km
Apogee alt
507.4 km
Semi-major
6,881.0 km
B*
3.7591e-4
RAAN
335.7199°
Arg perigee
328.7032°
Mean anomaly
31.3814°
Rev number
7,532

§ Raw data

SCS-01 L1 63992U 25100L   26264.96993365  .00008268  00000+0  37591-3 0  99982 63992  97.3587 335.7199 0006538 328.7032  31.3814 15.20972492 75322

JSON: /api/v1/satellites/63992 · /tle

For live sub-satellite position, see the globe view (requires WebGL).

§ Visibility from observer

Set your observer location to see the next 7 days of passes ≥ 10°. The values pass through the URL so the page stays shareable.

No JS? Fill the form by hand. The geolocation button needs JavaScript.